Location: Altenst�hlen
(53.5567°N, 8.9425°E)
Time: 18:15:27
(UTC+00:00)

STARLINK-32 - Pass Details

Date: 23 October 2019
Orbit: 548 x 552 km, 53.0° (Epoch: 18 November)

Event Time Altitude Azimuth Distance (km) Brightness Sun altitude
Rises 18:02:32 0° 279° (W) 2,718 8.9 -17.2°
Reaches altitude 10° 18:04:46 10° 277° (W) 1,824 7.6 -17.5°
Maximum altitude 18:08:53 72° 194° (SSW) 580 3.7 -18.2°
Enters shadow 18:10:12 42° 121° (ESE) 797 4.0 -18.4°
